User: anonymous   Login
Location: Castelbiague
(43.0361°N, 0.9246°E)
Time: 17:03:29
(UTC+00:00)
Language:

Cosmos 2219 Rocket - Orbit

View from above orbital plane
View from above orbital plane
View from above satellite
View from above satellite

Ground track
Ground track

The orbit data is extracted from the following two-line orbital elements,

1 22220U 92076B   21269.04552095 -.00000172  00000-0 -62161-4 0  9994
2 22220  71.0033  11.4740 0011123  44.8335 127.3336 14.16476428491930
Epoch (UTC): 26 September 2021 01:05:33
Eccentricity: 0.0011123
inclination: 71.0033°
perigee height: 829 km
apogee height: 845 km
right ascension of ascending node: 11.4740°
argument of perigee: 44.8335°
revolutions per day: 14.16476428
mean anomaly at epoch: 127.3336°
orbit number at epoch: 49193

The dashed part of the orbit path shows where the satellite is in the earth's shadow,  

DLR